Location: Schommer Observatory
(40.5200°N, 74.4500°W)
Time: 21:31:07
(UTC-04:00)

Tiangong 1 - Pass Details

Date: 08 October 2017
Orbit: 293 x 320 km, 42.8° (Epoch: 19 October)

Event Time Altitude Azimuth Distance (km) Brightness Sun altitude
Rises 18:58:17 0° 256° (WSW) 2,040 6.8 -6.5°
Reaches altitude 10° 19:00:17 10° 257° (WSW) 1,206 5.2 -6.9°
Maximum altitude 19:02:59 81° 344° (NNW) 319 0.7 -7.4°
Enters shadow 19:05:33 11° 73° (ENE) 1,151 2.9 -7.9°
